Weather in Elista

Russia / Republic of Kalmykia     46°18′27″N   44°16′11″E
temp.,
°C
wind,
m/s
gust,
m/s
humid.,
%
clouds,
%
prec.,
mm/h
press.,
hPa
HPBL,
m
21 april, wed
wed2100:00+13sw2287100 0.5 101221
03:00+13wsw4893100 0.6 1015263
06:00+11wnw4975100 0.1 1015448
09:00+10w71287100 0.4 1018623
12:00+10wnw4786100 1.1 1019401
15:00+11w3484100 1.4 1019219
18:00+11sw3588100 0.0 1020153
21:00+11sw3586100 0.0 1022100
22 april, thu
thu2200:00+11w3384100 0.0 102153
03:00+9wnw2287100 0.0 102210
06:00+10n2381100 0.0 102248
09:00+12ene2377100 0.0 1023156
12:00+13ese1268100 0.0 1023392
15:00+16ssw2159100 0.0 10231000
18:00+14wsw3475100 0.0 1022186
21:00+12nw238499 0.1 102272
23 april, fri
fri2300:00+12wnw3481100 0.0 1022114
03:00+10wnw5794100 2.9 1022200
06:00+11wnw5991100 0.9 1022338
09:00+11nw4690100 1.7 1022288
12:00+14w446752 0.4 1021773
15:00+17w465660 1.1 10201525
18:00+15nw4865100 0.2 1020263
21:00+12nnw11709 0.2 102011
24 april, sat
sat2400:00+10ese11785 0.0 101811
03:00+10ssw1173100 0.0 101810
06:00+11ssw2274100 0.0 101841
09:00+14sw466399 0.0 1019496
12:00+17ssw685640 0.4 10181315
15:00+18w6105080 0.9 10171868
18:00+16w58593 0.0 1018425
21:00+12w337381 0.0 101939
25 april, sun
sun2500:00+11wsw2379100 0.0 101926
03:00+11wsw3587100 0.4 1019173
06:00+10w4785100 0.4 1020359
09:00+10w3679100 0.4 1020290
12:00+11wnw3563100 0.0 1020418
15:00+10w3478100 1.1 1020386
18:00+8nnw6991100 4.5 1019411
21:00+7n4790100 8.5 1018452